This is the latest recevied weather packets stored in our database for station/object KE4AMH. If no packets are shown the sender has not sent any weather packets the latest 10 day(s).
| Time | Temp. | Humidity | Pressure | Rain* | Wind** | Luminosity | Snow |
|---|---|---|---|---|---|---|---|
| 1778070470 | 18.89° C | 77% | 1014.7 hPa | 0 mm | - | 39 W/m² | - |
| 1778070167 | 18.89° C | 77% | 1014.5 hPa | 0 mm | - | 66 W/m² | - |
| 1778069866 | 18.89° C | 77% | 1014.6 hPa | 0 mm | - | 27 W/m² | - |
| 1778069562 | 18.89° C | 76% | 1014.6 hPa | 0 mm | - | 26 W/m² | - |
| 1778069259 | 18.89° C | 76% | 1014.3 hPa | 0 mm | - | 37 W/m² | - |
| 1778068958 | 18.89° C | 76% | 1014 hPa | 0 mm | - | 65 W/m² | - |
| 1778068655 | 18.89° C | 76% | 1013.7 hPa | 0 mm | - | 53 W/m² | - |
| 1778068353 | 18.89° C | 76% | 1014.2 hPa | 0 mm | - | 38 W/m² | - |
| 1778068050 | 18.33° C | 75% | 1014.2 hPa | 0 mm | - | 31 W/m² | - |
| 1778067748 | 18.33° C | 75% | 1014.5 hPa | 0 mm | - | 16 W/m² | - |
| 1778067446 | 18.33° C | 75% | 1014.5 hPa | 0 mm | - | 16 W/m² | - |
| 1778067143 | 18.89° C | 75% | 1014.6 hPa | 0 mm | - | 16 W/m² | - |
| 1778066839 | 18.89° C | 75% | 1014.5 hPa | 0 mm | - | 28 W/m² | - |
| 1778066537 | 18.33° C | 75% | 1014.3 hPa | 0 mm | - | 39 W/m² | - |
| 1778066235 | 18.33° C | 75% | 1014.3 hPa | 0 mm | - | 21 W/m² | - |
| 1778065933 | 18.33° C | 74% | 1014.2 hPa | 0 mm | - | 16 W/m² | - |
| 1778065629 | 18.33° C | 74% | 1014.1 hPa | 0 mm | - | 11 W/m² | - |
| 1778065327 | 18.33° C | 74% | 1013.9 hPa | 0 mm | - | 7 W/m² | - |
| 1778065023 | 18.33° C | 73% | 1014 hPa | 0 mm | - | 6 W/m² | - |
| 1778064720 | 18.33° C | 73% | 1013.9 hPa | 0 mm | - | 1 W/m² | - |
| 1778064418 | 18.33° C | 73% | 1014.1 hPa | 0 mm | - | 0 W/m² | - |
| 1778064116 | 18.33° C | 73% | 1013.5 hPa | 0 mm | - | 0 W/m² | - |
| 1778063813 | 18.33° C | 73% | 1013.6 hPa | 0 mm | - | 0 W/m² | - |
| 1778063509 | 18.33° C | 73% | 1013.4 hPa | 0 mm | - | 0 W/m² | - |
| 1778063208 | 18.33° C | 72% | 1013.1 hPa | 0 mm | - | 0 W/m² | - |
* Rain latest hour (hover to see other rain measurements)
** Current wind speed in m/s (hover to see current wind gust speed)